Location: Plzen
(49.7500°N, 13.3670°E)
Time: 03:22:50
(UTC+01:00)

ISS - Pass Details

Date: 01 October 2020
Orbit: 417 x 420 km, 51.6° (Epoch: 25 October)

Event Time Altitude Azimuth Distance (km) Brightness Sun altitude
Rises 21:06:16 0° 287° (WNW) 2,370 1.5 -23.3°
Reaches altitude 10° 21:08:29 10° 278° (W) 1,504 0.0 -23.6°
Enters shadow 21:10:43 28° 244° (WSW) 814 -2.0 -23.9°
